Time,TemperatureF,DewpointF,PressureIn,WindDirection,WindDirectionDegrees,WindSpeedMPH,WindSpeedGustMPH,Humidity,HourlyPrecipIn,Conditions,Clouds,dailyrainin,SolarRadiationWatts/m^2,SoftwareType,DateUTC
2015-07-06 00:00:00,58.1,49.5,-100.00,NE,34,9.6,15.9,73,0.00,,,-99.99,1.0,HOBO +U30 +Weather +,2015-07-06 06:00:00,
2015-07-06 00:15:00,58.0,49.3,-100.00,NNE,27,8.9,14.5,72,0.00,,,-99.99,1.0,HOBO +U30 +Weather +,2015-07-06 06:15:00,
2015-07-06 00:30:00,57.6,49.4,-100.00,NNE,24,10.1,15.2,73,0.00,,,-99.99,1.0,HOBO +U30 +Weather +,2015-07-06 06:30:00,
2015-07-06 00:45:00,57.5,49.0,-100.00,NNE,25,7.8,12.3,73,0.00,,,-99.99,1.0,HOBO +U30 +Weather +,2015-07-06 06:45:00,
2015-07-06 01:00:00,57.4,49.2,-100.00,NNE,21,7.8,12.3,74,0.00,,,-99.99,1.0,HOBO +U30 +Weather +,2015-07-06 07:00:00,
2015-07-06 01:15:00,57.2,49.1,-100.00,North,10,6.7,10.7,74,0.00,,,-99.99,1.0,HOBO +U30 +Weather +,2015-07-06 07:15:00,
2015-07-06 01:30:00,57.2,49.1,-100.00,NNE,13,5.6,8.9,74,0.00,,,-99.99,1.0,HOBO +U30 +Weather +,2015-07-06 07:30:00,
2015-07-06 01:45:00,57.2,49.3,-100.00,North,11,5.6,9.6,74,0.00,,,-99.99,1.0,HOBO +U30 +Weather +,2015-07-06 07:45:00,
2015-07-06 02:00:00,57.0,49.2,-100.00,North,6,5.6,10.1,75,0.00,,,-99.99,1.0,HOBO +U30 +Weather +,2015-07-06 08:00:00,
2015-07-06 02:15:00,56.9,49.2,-100.00,North,10,6.3,10.1,75,0.00,,,-99.99,1.0,HOBO +U30 +Weather +,2015-07-06 08:15:00,
2015-07-06 02:30:00,57.1,49.5,-100.00,NNE,27,5.1,8.5,75,0.00,,,-99.99,1.0,HOBO +U30 +Weather +,2015-07-06 08:30:00,
2015-07-06 02:45:00,56.9,49.6,-100.00,NE,34,5.6,8.5,76,0.00,,,-99.99,1.0,HOBO +U30 +Weather +,2015-07-06 08:45:00,
2015-07-06 03:00:00,56.9,49.6,-100.00,NE,39,5.1,8.5,76,0.00,,,-99.99,1.0,HOBO +U30 +Weather +,2015-07-06 09:00:00,
2015-07-06 03:15:00,57.3,49.9,-100.00,NE,34,5.1,8.9,76,0.00,,,-99.99,1.0,HOBO +U30 +Weather +,2015-07-06 09:15:00,
2015-07-06 03:30:00,56.9,49.7,-100.00,NNE,32,4.5,7.8,76,0.00,,,-99.99,1.0,HOBO +U30 +Weather +,2015-07-06 09:30:00,
2015-07-06 03:45:00,56.8,49.7,-100.00,NNE,18,4.5,7.8,77,0.00,,,-99.99,1.0,HOBO +U30 +Weather +,2015-07-06 09:45:00,
2015-07-06 04:00:00,56.9,49.7,-100.00,NNE,13,3.4,7.4,76,0.00,,,-99.99,1.0,HOBO +U30 +Weather +,2015-07-06 10:00:00,
2015-07-06 04:15:00,56.9,49.9,-100.00,North,355,2.2,4.5,77,0.00,,,-99.99,1.0,HOBO +U30 +Weather +,2015-07-06 10:15:00,
2015-07-06 04:30:00,56.9,49.9,-100.00,NNE,29,2.2,4.5,77,0.00,,,-99.99,1.0,HOBO +U30 +Weather +,2015-07-06 10:30:00,
2015-07-06 04:45:00,57.2,49.6,-100.00,NE,34,2.2,5.6,75,0.00,,,-99.99,1.0,HOBO +U30 +Weather +,2015-07-06 10:45:00,
2015-07-06 05:00:00,56.9,49.9,-100.00,NE,35,4.0,6.7,77,0.00,,,-99.99,1.0,HOBO +U30 +Weather +,2015-07-06 11:00:00,
2015-07-06 05:15:00,56.8,49.7,-100.00,ENE,74,4.0,6.3,76,0.00,,,-99.99,1.0,HOBO +U30 +Weather +,2015-07-06 11:15:00,
2015-07-06 05:30:00,56.8,49.7,-100.00,ENE,66,5.1,7.8,77,0.00,,,-99.99,1.0,HOBO +U30 +Weather +,2015-07-06 11:30:00,
2015-07-06 05:45:00,56.8,49.7,-100.00,NE,52,3.4,5.6,77,0.00,,,-99.99,1.0,HOBO +U30 +Weather +,2015-07-06 11:45:00,
2015-07-06 06:00:00,56.9,49.9,-100.00,ENE,62,1.8,6.3,77,0.00,,,-99.99,4.0,HOBO +U30 +Weather +,2015-07-06 12:00:00,
2015-07-06 06:15:00,56.7,49.9,-100.00,NE,52,3.4,5.6,77,0.00,,,-99.99,7.0,HOBO +U30 +Weather +,2015-07-06 12:15:00,
2015-07-06 06:30:00,56.6,50.1,-100.00,ENE,60,5.1,6.7,79,0.00,,,-99.99,12.0,HOBO +U30 +Weather +,2015-07-06 12:30:00,
2015-07-06 06:45:00,56.4,50.2,-100.00,ENE,62,5.1,7.4,79,0.00,,,-99.99,23.0,HOBO +U30 +Weather +,2015-07-06 12:45:00,
2015-07-06 07:00:00,56.5,50.3,-100.00,ENE,60,5.6,7.8,79,0.00,,,-99.99,34.0,HOBO +U30 +Weather +,2015-07-06 13:00:00,
2015-07-06 07:15:00,56.8,50.6,-100.00,ENE,58,5.1,7.8,79,0.00,,,-99.99,62.0,HOBO +U30 +Weather +,2015-07-06 13:15:00,
2015-07-06 07:30:00,57.1,50.9,-100.00,ENE,63,5.1,7.8,79,0.00,,,-99.99,108.0,HOBO +U30 +Weather +,2015-07-06 13:30:00,
2015-07-06 07:45:00,57.5,50.8,-100.00,NE,45,5.6,8.9,78,0.00,,,-99.99,151.0,HOBO +U30 +Weather +,2015-07-06 13:45:00,
2015-07-06 08:00:00,57.5,51.3,-100.00,NNE,27,6.3,10.1,79,0.00,,,-99.99,189.0,HOBO +U30 +Weather +,2015-07-06 14:00:00,
2015-07-06 08:15:00,57.5,51.2,-100.00,NNE,14,5.6,8.9,79,0.00,,,-99.99,112.0,HOBO +U30 +Weather +,2015-07-06 14:15:00,
2015-07-06 08:30:00,57.6,51.6,-100.00,NNE,13,5.6,9.6,80,0.00,,,-99.99,123.0,HOBO +U30 +Weather +,2015-07-06 14:30:00,
2015-07-06 08:45:00,57.8,51.1,-100.00,NNE,14,5.6,8.9,78,0.00,,,-99.99,138.0,HOBO +U30 +Weather +,2015-07-06 14:45:00,
2015-07-06 09:00:00,57.9,51.4,-100.00,NNE,28,5.1,7.8,78,0.00,,,-99.99,184.0,HOBO +U30 +Weather +,2015-07-06 15:00:00,
2015-07-06 09:15:00,59.0,51.5,-100.00,NE,49,5.6,10.7,75,0.00,,,-99.99,221.0,HOBO +U30 +Weather +,2015-07-06 15:15:00,
2015-07-06 09:30:00,59.4,51.4,-100.00,NE,51,5.1,8.9,74,0.00,,,-99.99,177.0,HOBO +U30 +Weather +,2015-07-06 15:30:00,
2015-07-06 09:45:00,60.1,51.7,-100.00,ENE,67,3.4,10.1,73,0.00,,,-99.99,188.0,HOBO +U30 +Weather +,2015-07-06 15:45:00,
2015-07-06 10:00:00,59.4,51.4,-100.00,SE,145,4.0,8.9,74,0.00,,,-99.99,151.0,HOBO +U30 +Weather +,2015-07-06 16:00:00,
2015-07-06 10:15:00,60.5,51.7,-100.00,SE,129,5.1,10.1,72,0.00,,,-99.99,214.0,HOBO +U30 +Weather +,2015-07-06 16:15:00,
2015-07-06 10:30:00,61.7,51.9,-100.00,ENE,60,4.5,8.9,70,0.00,,,-99.99,991.0,HOBO +U30 +Weather +,2015-07-06 16:30:00,
2015-07-06 11:00:00,65.2,52.4,-100.00,NE,46,3.4,10.1,63,0.00,,,-99.99,478.0,HOBO +U30 +Weather +,2015-07-06 17:00:00,
2015-07-06 11:15:00,64.3,52.2,-100.00,ESE,111,4.0,8.5,64,0.00,,,-99.99,438.0,HOBO +U30 +Weather +,2015-07-06 17:15:00,
2015-07-06 11:30:00,65.4,52.3,-100.00,SE,138,4.0,8.9,62,0.00,,,-99.99,961.0,HOBO +U30 +Weather +,2015-07-06 17:30:00,
2015-07-06 11:45:00,68.4,52.7,-100.00,ENE,60,4.0,10.1,57,0.00,,,-99.99,644.0,HOBO +U30 +Weather +,2015-07-06 17:45:00,
2015-07-06 12:00:00,66.4,51.9,-100.00,ENE,67,4.0,10.7,59,0.00,,,-99.99,732.0,HOBO +U30 +Weather +,2015-07-06 18:00:00,
2015-07-06 12:15:00,68.1,52.8,-100.00,NE,48,2.2,8.5,57,0.00,,,-99.99,323.0,HOBO +U30 +Weather +,2015-07-06 18:15:00,
2015-07-06 12:30:00,66.7,51.4,-100.00,ENE,74,6.7,13.4,58,0.00,,,-99.99,971.0,HOBO +U30 +Weather +,2015-07-06 18:30:00,
2015-07-06 12:45:00,66.9,51.4,-100.00,NE,44,6.7,16.3,57,0.00,,,-99.99,236.0,HOBO +U30 +Weather +,2015-07-06 18:45:00,
2015-07-06 13:00:00,68.2,51.6,-100.00,NE,55,6.7,16.3,55,0.00,,,-99.99,401.0,HOBO +U30 +Weather +,2015-07-06 19:00:00,
2015-07-06 13:15:00,68.4,51.2,-100.00,NNE,20,5.6,12.3,54,0.00,,,-99.99,369.0,HOBO +U30 +Weather +,2015-07-06 19:15:00,
2015-07-06 13:30:00,70.2,51.6,-100.00,NNE,21,6.7,15.9,51,0.00,,,-99.99,1032.0,HOBO +U30 +Weather +,2015-07-06 19:30:00,
2015-07-06 13:45:00,68.5,51.1,-100.00,NNE,22,7.4,17.0,53,0.00,,,-99.99,298.0,HOBO +U30 +Weather +,2015-07-06 19:45:00,
2015-07-06 14:00:00,68.7,51.0,-100.00,NE,38,6.3,14.1,53,0.00,,,-99.99,239.0,HOBO +U30 +Weather +,2015-07-06 20:00:00,
2015-07-06 14:15:00,68.9,50.2,-100.00,NNE,15,7.4,15.2,51,0.00,,,-99.99,298.0,HOBO +U30 +Weather +,2015-07-06 20:15:00,
2015-07-06 14:30:00,70.1,50.8,-100.00,NNE,27,6.7,13.0,50,0.00,,,-99.99,949.0,HOBO +U30 +Weather +,2015-07-06 20:30:00,
2015-07-06 14:45:00,71.5,50.8,-100.00,ENE,76,5.1,13.4,48,0.00,,,-99.99,909.0,HOBO +U30 +Weather +,2015-07-06 20:45:00,
2015-07-06 15:00:00,72.4,50.7,-100.00,NNE,32,7.8,13.0,46,0.00,,,-99.99,848.0,HOBO +U30 +Weather +,2015-07-06 21:00:00,
2015-07-06 15:15:00,71.5,50.7,-100.00,NE,45,6.3,15.9,47,0.00,,,-99.99,348.0,HOBO +U30 +Weather +,2015-07-06 21:15:00,
2015-07-06 15:30:00,71.6,50.1,-100.00,NE,44,6.7,15.2,46,0.00,,,-99.99,343.0,HOBO +U30 +Weather +,2015-07-06 21:30:00,
2015-07-06 15:45:00,73.6,50.7,-100.00,NE,52,4.5,12.3,44,0.00,,,-99.99,856.0,HOBO +U30 +Weather +,2015-07-06 21:45:00,
2015-07-06 16:00:00,73.3,50.4,-100.00,NE,38,8.5,17.0,44,0.00,,,-99.99,761.0,HOBO +U30 +Weather +,2015-07-06 22:00:00,
2015-07-06 16:15:00,75.1,50.6,-100.00,NE,35,5.6,12.3,42,0.00,,,-99.99,748.0,HOBO +U30 +Weather +,2015-07-06 22:15:00,
2015-07-06 16:30:00,72.1,50.3,-100.00,NE,45,6.7,15.9,46,0.00,,,-99.99,194.0,HOBO +U30 +Weather +,2015-07-06 22:30:00,
2015-07-06 16:45:00,73.8,50.0,-100.00,ENE,74,7.8,14.1,43,0.00,,,-99.99,593.0,HOBO +U30 +Weather +,2015-07-06 22:45:00,
2015-07-06 17:00:00,74.8,50.7,-100.00,NE,46,7.4,14.1,42,0.00,,,-99.99,536.0,HOBO +U30 +Weather +,2015-07-06 23:00:00,
2015-07-06 17:15:00,74.6,50.4,-100.00,NE,55,7.8,16.3,42,0.00,,,-99.99,526.0,HOBO +U30 +Weather +,2015-07-06 23:15:00,